Location: Unspecified
(33.2407°S, 0.0000°E)
Time: 14:22:12
(UTC+00:00)

Tiangong 2 - Visible Passes

Search period start: 23 May 2019 00:00
Search period end: 02 June 2019 00:00
Orbit: 379 x 387 km, 42.8° (Epoch: 23 May)

Date Brightness Start Highest point End Pass type
(mag) Time Alt. Az. Time Alt. Az. Time Alt. Az.
24 May 2.7 05:26:07 12° NNW 05:28:41 33° NE 05:31:39 10° ESE visible
25 May 4.3 04:29:57 14° ENE 04:29:57 14° ENE 04:30:57 10° E visible
25 May 1.2 06:02:12 11° WNW 06:05:16 58° SSW 06:08:28 10° SE visible
26 May 1.7 05:05:44 56° E 05:05:44 56° E 05:08:26 10° ESE visible
27 May 1.9 05:41:16 30° SW 05:41:57 34° SSW 05:44:57 10° SE visible
28 May 4.0 04:44:25 15° SE 04:44:25 15° SE 04:45:01 10° SE visible
28 May 3.0 06:16:39 10° WSW 06:18:59 18° S 06:21:18 10° SE visible
29 May 3.0 05:19:37 20° S 05:19:37 20° S 05:21:22 10° SE visible
30 May 3.2 05:54:43 14° SSW 05:55:48 16° S 05:57:51 10° SE visible
31 May 4.1 04:57:33 11° SSE 04:57:33 11° SSE 04:57:48 10° SE visible
01 Jun 3.3 05:32:31 15° S 05:32:36 15° S 05:34:34 10° SE visible
